GW1238 Weather Reports


Display with metric or nautical units.
time (UTC)temp
F
wind
direction
speed
MPH
gust
MPH
rain 1hr
in
rain 24hr
in
rain mn
in
humidity
%
barometer
mb
20260509235501 72 296 1.0 1.0 0.00 0.00 0.00 73 1015.2
20260509234956 72 189 0.0 1.0 0.00 0.00 0.00 70 1015.3
20260509234454 72 202 0.0 1.0 0.00 0.00 0.00 71 1015.1
20260509233952 73 170 0.0 0.0 0.00 0.00 0.00 69 1015.1
20260509233449 73 250 0.0 1.0 0.00 0.00 0.00 71 1014.9
20260509232944 74 223 0.0 1.0 0.00 0.00 0.00 72 1014.8
20260509232443 74 164 0.0 0.0 0.00 0.00 0.00 68 1014.6
20260509231938 74 248 1.0 3.0 0.00 0.00 0.00 67 1014.9
20260509231435 74 221 1.0 2.0 0.00 0.00 0.00 66 1014.9
20260509230933 74 285 0.0 1.0 0.00 0.00 0.00 67 1014.8
20260509230430 75 208 0.0 1.0 0.00 0.00 0.00 66 1014.9
20260509225926 75 225 1.0 2.0 0.00 0.00 0.00 67 1014.7
20260509225422 75 176 0.0 2.0 0.00 0.00 0.00 66 1014.8
20260509224919 75 210 0.0 3.0 0.00 0.00 0.00 66 1014.7
20260509224414 75 198 0.0 2.0 0.00 0.00 0.00 66 1014.6
20260509223912 76 12 1.0 2.0 0.00 0.00 0.00 68 1014.5
20260509223408 75 245 2.0 2.0 0.00 0.00 0.00 68 1014.4
20260509222906 76 189 2.0 2.0 0.00 0.00 0.00 69 1014.5
20260509222401 76 177 1.0 2.0 0.00 0.00 0.00 68 1014.4
20260509221856 76 205 2.0 2.0 0.00 0.00 0.00 68 1014.2
20260509221353 76 190 4.0 4.0 0.00 0.00 0.00 67 1014.2
20260509220849 76 183 2.0 3.0 0.00 0.00 0.00 68 1014.2
20260509220345 76 214 3.0 3.0 0.00 0.00 0.00 67 1014.0
20260509215840 76 201 1.0 3.0 0.00 0.00 0.00 67 1013.9
20260509215337 76 189 2.0 3.0 0.00 0.00 0.00 67 1014.0
20260509214834 76 188 2.0 2.0 0.00 0.00 0.00 68 1014.2
20260509214331 76 200 1.0 2.0 0.00 0.00 0.00 68 1014.4
20260509213829 76 201 1.0 2.0 0.00 0.00 0.00 68 1014.0
20260509213323 75 187 4.0 7.0 0.00 0.00 0.00 67 1014.2
20260509212821 76 199 4.0 4.0 0.00 0.00 0.00 66 1014.1
20260509212314 76 198 2.0 3.0 0.00 0.00 0.00 66 1014.2
20260509211809 76 189 2.0 3.0 0.00 0.00 0.00 67 1014.2
20260509211305 75 189 3.0 4.0 0.00 0.00 0.00 67 1014.2
20260509210802 76 198 3.0 3.0 0.00 0.00 0.00 66 1014.1
20260509210259 75 165 1.0 4.0 0.00 0.00 0.00 66 1014.1
20260509205758 75 196 4.0 6.0 0.00 0.00 0.00 65 1013.9
20260509205254 76 194 6.0 7.0 0.00 0.00 0.00 68 1014.4
20260509204750 76 187 4.0 4.0 0.00 0.00 0.00 68 1014.0
20260509204246 75 197 4.0 6.0 0.00 0.00 0.00 66 1013.9
20260509203742 76 187 4.0 4.0 0.00 0.00 0.00 67 1014.0
20260509203240 76 191 5.0 6.0 0.00 0.00 0.00 66 1013.9
20260509202737 76 179 4.0 6.0 0.00 0.00 0.00 64 1013.8
20260509202233 76 195 3.0 6.0 0.00 0.00 0.00 62 1013.6
20260509201727 76 195 3.0 6.0 0.00 0.00 0.00 61 1013.7
20260509201224 76 179 7.0 8.0 0.00 0.00 0.00 65 1013.9
20260509200721 77 194 5.0 6.0 0.00 0.00 0.00 59 1013.8
20260509200221 76 189 2.0 6.0 0.00 0.00 0.00 59 1013.8
20260509195718 76 190 6.0 6.0 0.00 0.00 0.00 63 1014.0
20260509195213 76 182 4.0 7.0 0.00 0.00 0.00 63 1014.4
20260509194712 76 184 2.0 4.0 0.00 0.00 0.00 61 1014.4
20260509194209 76 183 4.0 7.0 0.00 0.00 0.00 60 1014.4
20260509193706 76 202 2.0 6.0 0.00 0.00 0.00 59 1014.6
20260509193201 76 167 1.0 3.0 0.00 0.00 0.00 58 1014.5
20260509192657 75 200 3.0 7.0 0.00 0.00 0.00 62 1014.5
20260509192158 76 232 3.0 4.0 0.00 0.00 0.00 61 1014.5
20260509191653 75 181 4.0 8.0 0.00 0.00 0.00 60 1014.6
20260509191150 76 187 4.0 4.0 0.00 0.00 0.00 61 1014.6
20260509190646 75 192 4.0 7.0 0.00 0.00 0.00 65 1014.9
20260509190143 75 197 4.0 8.0 0.00 0.00 0.00 64 1014.8
20260509185641 75 175 2.0 4.0 0.00 0.00 0.00 61 1014.6
20260509185137 75 178 7.0 8.0 0.00 0.00 0.00 64 1014.9
20260509184635 75 206 4.0 6.0 0.00 0.00 0.00 67 1015.0
20260509184131 75 248 2.0 6.0 0.00 0.00 0.00 64 1014.8
20260509183628 75 191 4.0 6.0 0.00 0.00 0.00 64 1014.9
20260509183123 75 169 3.0 4.0 0.00 0.00 0.00 63 1014.6
20260509182620 75 181 4.0 7.0 0.00 0.00 0.00 64 1014.9
20260509182117 74 191 2.0 6.0 0.00 0.00 0.00 65 1014.9
20260509181615 74 172 4.0 4.0 0.00 0.00 0.00 66 1014.9
20260509181111 74 165 2.0 3.0 0.00 0.00 0.00 65 1014.7
20260509180608 74 177 1.0 2.0 0.00 0.00 0.00 68 1014.8
20260509180105 73 173 5.0 6.0 0.00 0.00 0.00 67 1014.7
20260509175600 74 181 2.0 3.0 0.00 0.00 0.00 69 1014.4
20260509175058 74 155 2.0 2.0 0.00 0.00 0.00 65 1014.5
20260509174554 73 128 1.0 2.0 0.00 0.00 0.00 66 1014.6
20260509174049 73 155 1.0 2.0 0.00 0.00 0.00 66 1014.7
20260509173549 72 152 2.0 3.0 0.00 0.00 0.00 66 1014.9
20260509173046 73 178 4.0 4.0 0.00 0.00 0.00 69 1015.0
20260509172543 73 174 3.0 6.0 0.00 0.00 0.00 67 1015.4
20260509172039 72 197 5.0 7.0 0.00 0.00 0.00 67 1015.3
20260509171535 72 171 2.0 4.0 0.00 0.00 0.00 66 1015.3
20260509171032 72 182 5.0 6.0 0.00 0.00 0.00 72 1015.1
20260509170527 70 148 3.0 4.0 0.00 0.00 0.00 72 1015.3
20260509170023 70 158 3.0 4.0 0.00 0.00 0.00 72 1015.3
20260509165522 69 153 3.0 4.0 0.00 0.00 0.00 73 1015.4
20260509165018 71 171 3.0 4.0 0.00 0.00 0.00 71 1015.3
20260509164514 71 152 4.0 6.0 0.00 0.00 0.00 70 1015.5
20260509164010 71 163 2.0 3.0 0.00 0.00 0.00 72 1015.5
20260509163508 71 166 2.0 3.0 0.00 0.00 0.00 72 1015.6
20260509163008 71 173 3.0 4.0 0.00 0.00 0.00 72 1015.6
20260509162506 71 171 2.0 4.0 0.00 0.00 0.00 73 1015.4
20260509162001 70 165 3.0 4.0 0.00 0.00 0.00 72 1015.6
20260509161458 70 171 1.0 2.0 0.00 0.00 0.00 73 1015.5
20260509160953 69 182 3.0 6.0 0.00 0.00 0.00 74 1015.6
20260509160449 69 194 4.0 6.0 0.00 0.00 0.00 73 1015.8
20260509155944 70 183 4.0 6.0 0.00 0.00 0.00 74 1015.8
20260509155441 69 167 3.0 6.0 0.00 0.00 0.00 74 1015.9
20260509154938 69 181 4.0 6.0 0.00 0.00 0.00 74 1015.9
20260509154434 68 195 4.0 4.0 0.00 0.00 0.00 75 1015.9
20260509153931 68 185 6.0 8.0 0.00 0.00 0.00 77 1016.1
20260509153428 67 190 5.0 7.0 0.00 0.00 0.00 78 1015.9
20260509152925 67 179 4.0 6.0 0.00 0.00 0.00 78 1016.0
20260509152421 66 193 4.0 6.0 0.00 0.00 0.00 79 1016.0
20260509151918 66 186 4.0 6.0 0.00 0.00 0.00 79 1016.1
20260509151414 66 187 3.0 4.0 0.00 0.00 0.00 79 1016.0
20260509150912 66 202 4.0 6.0 0.00 0.00 0.00 79 1015.9
20260509150409 66 185 5.0 7.0 0.00 0.00 0.00 80 1015.9
20260509145908 66 188 5.0 6.0 0.00 0.00 0.00 81 1015.8
20260509145407 66 188 7.0 7.0 0.00 0.00 0.00 82 1015.9
20260509144903 65 186 3.0 6.0 0.00 0.00 0.00 80 1015.9
20260509144400 65 175 4.0 6.0 0.00 0.00 0.00 81 1016.0
20260509143857 65 177 4.0 6.0 0.00 0.00 0.00 82 1016.0
20260509143355 65 190 4.0 6.0 0.00 0.00 0.00 82 1016.1
20260509142851 65 198 5.0 7.0 0.00 0.00 0.00 82 1015.9
20260509142347 65 178 4.0 6.0 0.00 0.00 0.00 81 1015.9
20260509141843 65 195 3.0 6.0 0.00 0.00 0.00 80 1015.6
20260509141340 65 161 2.0 3.0 0.00 0.00 0.00 81 1015.7
20260509140837 65 167 3.0 4.0 0.00 0.00 0.00 81 1015.6
20260509140334 65 164 2.0 4.0 0.00 0.00 0.00 81 1015.6
20260509135832 65 165 2.0 4.0 0.00 0.00 0.00 80 1015.5
20260509135329 65 178 3.0 4.0 0.00 0.00 0.00 81 1015.4
20260509134826 65 164 3.0 3.0 0.00 0.00 0.00 82 1015.2
20260509134323 64 181 2.0 4.0 0.00 0.00 0.00 83 1015.5
20260509133820 63 177 3.0 6.0 0.00 0.00 0.00 84 1015.5
20260509133317 63 197 2.0 4.0 0.00 0.00 0.00 83 1015.3
20260509132815 63 194 2.0 4.0 0.00 0.00 0.00 82 1015.5
20260509132314 64 169 3.0 4.0 0.00 0.00 0.00 83 1015.3
20260509131810 64 175 4.0 4.0 0.00 0.00 0.00 84 1015.4
20260509131307 63 171 3.0 3.0 0.00 0.00 0.00 85 1015.4
20260509130803 62 182 3.0 3.0 0.00 0.00 0.00 87 1015.3
20260509130259 61 168 3.0 3.0 0.00 0.00 0.00 86 1015.3
20260509125756 61 166 2.0 3.0 0.00 0.00 0.00 87 1015.3
20260509125252 61 173 1.0 2.0 0.00 0.00 0.00 87 1015.4
20260509124749 61 165 2.0 3.0 0.00 0.00 0.00 87 1015.9
20260509124245 60 178 2.0 3.0 0.00 0.00 0.00 88 1015.7
20260509123744 60 182 2.0 3.0 0.00 0.00 0.00 88 1015.9
20260509123241 60 196 3.0 3.0 0.00 0.00 0.00 88 1015.7
20260509122736 60 190 2.0 4.0 0.00 0.00 0.00 87 1015.3
20260509122233 60 190 2.0 4.0 0.00 0.00 0.00 88 1015.3
20260509121730 60 194 4.0 4.0 0.00 0.00 0.00 89 1015.3
20260509121227 60 198 4.0 4.0 0.00 0.00 0.00 89 1015.5
20260509120726 60 156 1.0 3.0 0.00 0.00 0.00 89 1015.4
20260509120223 59 199 2.0 3.0 0.00 0.00 0.00 89 1015.2
20260509115721 59 188 2.0 3.0 0.00 0.00 0.00 89 1015.2
20260509115218 60 224 2.0 6.0 0.00 0.00 0.00 90 1015.2
20260509114716 59 196 3.0 4.0 0.00 0.00 0.00 90 1015.3
20260509114215 59 195 2.0 4.0 0.00 0.00 0.00 91 1015.1
20260509113713 59 192 3.0 4.0 0.00 0.00 0.00 91 1015.1
20260509113210 59 198 3.0 6.0 0.00 0.00 0.00 93 1015.3
20260509112706 58 201 3.0 3.0 0.00 0.00 0.00 93 1015.3
20260509112203 59 208 2.0 3.0 0.00 0.00 0.00 94 1015.1
20260509111700 58 185 4.0 6.0 0.00 0.00 0.00 95 1014.9
20260509111157 57 239 0.0 1.0 0.00 0.00 0.00 95 1014.9
20260509110654 57 203 0.0 0.0 0.00 0.00 0.00 95 1015.2
20260509110151 56 214 0.0 0.0 0.00 0.00 0.00 95 1015.3
20260509105649 56 289 2.0 2.0 0.00 0.00 0.00 95 1015.2
20260509105146 56 270 1.0 1.0 0.00 0.00 0.00 95 1015.1
20260509104643 56 307 1.0 2.0 0.00 0.00 0.00 95 1015.2
20260509104140 56 284 1.0 1.0 0.00 0.00 0.00 95 1015.1
20260509103638 56 294 2.0 2.0 0.00 0.00 0.00 96 1015.0
20260509103136 56 290 0.0 1.0 0.00 0.00 0.00 96 1015.1
20260509102633 56 289 1.0 2.0 0.00 0.00 0.00 96 1015.1
20260509102130 56 282 1.0 2.0 0.00 0.00 0.00 96 1014.9
20260509101626 55 291 2.0 2.0 0.00 0.00 0.00 95 1014.9
20260509101123 55 314 1.0 2.0 0.00 0.00 0.00 95 1015.1
20260509100620 55 292 2.0 4.0 0.00 0.00 0.00 95 1015.2
20260509100118 55 300 2.0 3.0 0.00 0.00 0.00 95 1015.0
20260509095614 55 304 2.0 2.0 0.00 0.00 0.00 94 1014.9
20260509095112 56 269 1.0 1.0 0.00 0.00 0.00 94 1014.9
20260509094607 56 265 1.0 2.0 0.00 0.00 0.00 94 1014.9
20260509094105 56 277 1.0 2.0 0.00 0.00 0.00 94 1014.8
20260509093603 56 337 0.0 1.0 0.00 0.00 0.00 93 1014.8
20260509093100 56 244 0.0 1.0 0.00 0.00 0.00 93 1014.9
20260509092558 57 265 1.0 2.0 0.00 0.00 0.00 93 1014.7
20260509092056 57 289 1.0 1.0 0.00 0.00 0.00 93 1015.2
20260509091554 57 205 0.0 1.0 0.00 0.00 0.00 93 1015.4
20260509091050 57 276 1.0 1.0 0.00 0.00 0.00 93 1015.0
20260509090547 57 229 2.0 3.0 0.00 0.00 0.00 94 1015.0
20260509090045 57 160 0.0 1.0 0.00 0.00 0.00 94 1015.1
20260509085542 57 197 2.0 4.0 0.00 0.00 0.00 95 1015.1
20260509085038 56 195 3.0 3.0 0.00 0.00 0.00 96 1015.3
20260509084535 56 183 0.0 2.0 0.00 0.00 0.00 96 1015.3
20260509084032 56 299 1.0 3.0 0.00 0.00 0.00 96 1015.7
20260509083530 55 269 1.0 2.0 0.00 0.00 0.00 97 1015.7
20260509083026 55 311 1.0 2.0 0.00 0.00 0.00 97 1015.6
20260509082524 55 285 2.0 2.0 0.00 0.00 0.00 97 1015.4
20260509082021 55 279 1.0 1.0 0.00 0.00 0.00 97 1015.2
20260509081518 55 286 1.0 2.0 0.00 0.00 0.00 97 1015.2
20260509081015 55 297 1.0 2.0 0.00 0.00 0.00 97 1015.1
20260509080513 55 281 1.0 2.0 0.00 0.00 0.00 97 1015.2
20260509080011 54 295 1.0 2.0 0.00 0.00 0.00 98 1015.4
20260509075508 54 300 2.0 2.0 0.00 0.00 0.00 98 1015.4
20260509075005 54 294 2.0 2.0 0.00 0.00 0.00 97 1015.3
20260509074502 54 275 1.0 2.0 0.00 0.00 0.00 97 1015.2
20260509073959 54 277 1.0 2.0 0.00 0.00 0.00 97 1015.2
20260509073455 54 301 2.0 2.0 0.00 0.00 0.00 98 1015.1
20260509072951 54 299 1.0 2.0 0.00 0.00 0.00 97 1015.0
20260509072449 54 301 1.0 3.0 0.00 0.00 0.00 98 1014.9
20260509071945 54 296 2.0 2.0 0.00 0.00 0.00 97 1014.7
20260509071441 54 335 1.0 2.0 0.00 0.00 0.00 97 1014.7
20260509070940 54 304 1.0 2.0 0.00 0.00 0.00 97 1014.7
20260509070436 54 283 1.0 1.0 0.00 0.00 0.00 97 1014.8
20260509065932 54 256 1.0 2.0 0.00 0.00 0.00 97 1015.2
20260509065428 54 300 1.0 2.0 0.00 0.00 0.00 97 1015.0
20260509064924 54 317 1.0 3.0 0.00 0.00 0.00 98 1015.3
20260509064422 54 298 1.0 2.0 0.00 0.00 0.00 97 1015.5
20260509063920 53 291 1.0 2.0 0.00 0.00 0.00 97 1015.4
20260509063415 54 299 2.0 2.0 0.00 0.00 0.00 97 1015.4
20260509062907 54 290 1.0 2.0 0.00 0.00 0.00 97 1015.2
20260509062405 53 291 2.0 3.0 0.00 0.00 0.00 97 1015.5
20260509061902 53 298 2.0 2.0 0.00 0.00 0.00 97 1015.8
20260509061400 53 303 2.0 3.0 0.00 0.00 0.00 97 1015.6
20260509060856 53 293 2.0 3.0 0.00 0.00 0.00 96 1015.8
20260509060353 53 303 2.0 3.0 0.00 0.00 0.00 96 1015.6
20260509055848 53 301 2.0 2.0 0.00 0.00 0.00 96 1015.8
20260509055343 53 299 2.0 3.0 0.00 0.00 0.00 96 1015.9
20260509054841 53 297 2.0 4.0 0.00 0.00 0.00 96 1015.8
20260509054337 53 296 2.0 3.0 0.00 0.00 0.00 96 1016.0
20260509053836 53 290 2.0 3.0 0.00 0.00 0.00 96 1016.2
20260509053333 53 293 3.0 3.0 0.00 0.00 0.00 95 1016.2
20260509052831 53 299 3.0 3.0 0.00 0.00 0.00 95 1016.1
20260509052328 53 294 3.0 3.0 0.00 0.00 0.00 94 1016.3
20260509051826 53 287 2.0 3.0 0.00 0.00 0.00 94 1016.1
20260509051324 53 301 2.0 3.0 0.00 0.00 0.00 93 1016.1
20260509050820 53 295 2.0 3.0 0.00 0.00 0.00 93 1016.3
20260509050317 54 292 3.0 3.0 0.00 0.00 0.00 93 1016.3
20260509045814 54 300 2.0 3.0 0.00 0.00 0.00 93 1016.2
20260509045310 54 285 2.0 3.0 0.00 0.00 0.00 93 1016.2
20260509044808 54 309 2.0 3.0 0.00 0.00 0.00 92 1016.2
20260509044305 54 297 2.0 3.0 0.00 0.00 0.00 92 1016.2
20260509043802 55 304 3.0 3.0 0.00 0.00 0.00 91 1016.3
20260509043258 55 298 3.0 4.0 0.00 0.00 0.00 91 1016.5
20260509042754 55 286 2.0 3.0 0.00 0.00 0.00 91 1016.6
20260509042250 55 299 2.0 2.0 0.00 0.00 0.00 91 1016.6
20260509041747 55 298 2.0 4.0 0.00 0.00 0.00 90 1016.6
20260509041244 56 304 2.0 3.0 0.00 0.00 0.00 90 1016.6
20260509040743 56 300 2.0 3.0 0.00 0.00 0.00 89 1016.7
20260509040239 56 307 2.0 2.0 0.00 0.00 0.00 89 1016.7
20260509035736 56 292 2.0 2.0 0.00 0.00 0.00 89 1016.8
20260509035233 56 294 2.0 3.0 0.00 0.00 0.00 88 1016.9
20260509034730 56 307 2.0 4.0 0.00 0.00 0.00 88 1016.6
20260509034228 57 281 2.0 3.0 0.00 0.00 0.00 88 1016.7
20260509033724 56 304 2.0 4.0 0.00 0.00 0.00 87 1016.5
20260509033221 57 290 2.0 4.0 0.00 0.00 0.00 86 1016.7
20260509032719 57 287 2.0 3.0 0.00 0.00 0.00 87 1016.8
20260509032215 57 276 2.0 4.0 0.00 0.00 0.00 86 1016.7
20260509031713 58 311 2.0 2.0 0.00 0.00 0.00 86 1016.7
20260509031210 58 269 2.0 2.0 0.00 0.00 0.00 85 1016.8
20260509030708 59 214 1.0 2.0 0.00 0.00 0.00 86 1016.8
20260509030205 58 160 1.0 3.0 0.00 0.00 0.00 85 1016.7
20260509025701 59 270 1.0 3.0 0.00 0.00 0.00 84 1016.9
20260509025158 59 279 1.0 3.0 0.00 0.00 0.00 84 1016.9
20260509024653 59 289 2.0 2.0 0.00 0.00 0.00 84 1016.9
20260509024149 58 306 2.0 3.0 0.00 0.00 0.00 82 1016.8
20260509023647 59 275 2.0 2.0 0.00 0.00 0.00 82 1017.1
20260509023144 59 296 2.0 3.0 0.00 0.00 0.00 83 1017.1
20260509022640 59 281 2.0 3.0 0.00 0.00 0.00 82 1017.1
20260509022138 59 297 2.0 4.0 0.00 0.00 0.00 81 1016.9
20260509021634 59 286 3.0 3.0 0.00 0.00 0.00 80 1016.8
20260509021132 60 294 2.0 3.0 0.00 0.00 0.00 79 1016.8
20260509020630 60 286 2.0 3.0 0.00 0.00 0.00 81 1016.7
20260509020126 60 291 2.0 3.0 0.00 0.00 0.00 79 1016.6
20260509015626 60 291 2.0 3.0 0.00 0.00 0.00 79 1016.6
20260509015122 60 284 2.0 2.0 0.00 0.00 0.00 79 1016.7
20260509014619 61 298 2.0 3.0 0.00 0.00 0.00 78 1016.4
20260509014115 61 278 2.0 3.0 0.00 0.00 0.00 77 1016.5
20260509013613 61 302 2.0 3.0 0.00 0.00 0.00 76 1016.6
20260509013108 62 287 2.0 2.0 0.00 0.00 0.00 76 1016.2
20260509012605 62 264 1.0 3.0 0.00 0.00 0.00 75 1016.4
20260509012102 62 288 1.0 3.0 0.00 0.00 0.00 74 1016.5
20260509011600 63 297 1.0 2.0 0.00 0.00 0.00 73 1016.5
20260509011056 64 230 1.0 2.0 0.00 0.00 0.00 71 1016.6
20260509010554 63 184 0.0 2.0 0.00 0.00 0.00 71 1016.7
20260509010051 64 273 1.0 2.0 0.00 0.00 0.00 70 1016.4
20260509005549 64 274 2.0 3.0 0.00 0.00 0.00 70 1016.7
20260509005044 65 168 0.0 1.0 0.00 0.00 0.00 68 1016.6
20260509004541 65 192 1.0 2.0 0.00 0.00 0.00 67 1016.5
20260509004038 64 169 4.0 6.0 0.00 0.00 0.00 71 1016.6
20260509003537 64 287 2.0 2.0 0.00 0.00 0.00 68 1016.7
20260509003033 65 167 0.0 2.0 0.00 0.00 0.00 65 1016.4
20260509002531 66 306 1.0 3.0 0.00 0.00 0.00 63 1016.6
20260509002028 67 217 1.0 2.0 0.00 0.00 0.00 64 1016.6
20260509001525 69 209 2.0 2.0 0.00 0.00 0.00 60 1016.4
20260509001021 69 194 5.0 8.0 0.00 0.00 0.00 63 1016.7
20260509000520 69 202 6.0 7.0 0.00 0.00 0.00 61 1016.6
20260509000015 67 189 6.0 8.0 0.00 0.00 0.00 60 1016.5